Regional Weather Roundup
Issued by NWS

Home | Current Version | Previous Version | Graphics & Text | Print | Product List | Glossary On
Versions: 1 2 3 4 5 6 7 8 9 10 11 12 13 14 15 16 17 18 19 20 21 22 23 24 25 26 27 28 29 30 31 32 33 34 35 36 37 38 39 40 41 42 43 44 45 46 47 48 49 50
000
ASUS43 KLMK 230410
RWRKY
KENTUCKY REGIONAL WEATHER ROUNDUP
NATIONAL WEATHER SERVICE LOUISVILLE KY
1200 AM EDT WED JUL 23 2014

NOTE "FAIR" INDICATES FEW OR NO CLOUDS BELOW 12,000 FEET
WITH NO SIGNIFICANT WEATHER AND/OR OBSTRUCTIONS TO VISIBILITY.

KYZ001>023-026-027-061>063-070>075-230500-
WESTERN AND SOUTH CENTRAL KENTUCKY

CITY           SKY/WX    TMP DP  RH WIND       PRES   REMARKS
PADUCAH        CLEAR     75  71  87 SW3       30.06S
HENDERSON      CLEAR    N/A N/A N/A MISG        N/A
OWENSBORO      CLEAR     77  71  81 CALM      30.06S
HOPKINSVILLE   PTCLDY    80  74  82 W2        30.07S
BOWLING GREEN  CLEAR     81  69  67 S5        30.07S
GLASGOW        CLEAR     77  69  76 CALM      30.08S
$$

KYZ024-025-028>034-038-045-046-053-230500-
NORTH CENTRAL KENTUCKY

CITY           SKY/WX    TMP DP  RH WIND       PRES   REMARKS
LOUISVILLE/SDF PTCLDY    82  70  66 W3        30.05S
LOUISVILLE/LOU CLEAR     83  70  64 CALM      30.05S
FORT KNOX      CLEAR     75  74  95 CALM      30.06S
$$

KYZ035>037-039>044-047>052-055>060-089>105-230500-
NORTHEAST KENTUCKY

CITY           SKY/WX    TMP DP  RH WIND       PRES   REMARKS
LEXINGTON      CLEAR     78  69  73 S5        30.08S
COVINGTON      CLEAR     73  68  84 S3        30.05F
FRANKFORT      CLEAR     76  71  85 W3        30.06S
$$

KYZ054-064>069-076>088-106>120-230500-
SOUTHEAST KENTUCKY

CITY           SKY/WX    TMP DP  RH WIND       PRES   REMARKS
JACKSON        PTCLDY    76  71  85 CALM      30.11S
LONDON         PTCLDY    75  71  87 CALM      30.12S
SOMERSET       MOCLDY    72  72 100 CALM      30.11S FOG
MIDDLESBORO    PTCLDY    73  69  88 CALM      30.13F
MONTICELLO     PTCLDY    74  73  96 CALM      30.11F FOG
$$



USA.gov is the U.S. government's official web portal to all federal, state and local government web resources and services.